This demonstration page uses our WeatherBlox Daily Observations layout. Learn more.

Left ArrowRight Arrow

Hourly Observations for August 20, 2022

Temp ( °F °C ) Dew Point ( °F °C ) Humidity (%) Winds ( mph kmh ) Pressure ( in mb ) Visibility ( mi km ) Precip ( " mm )
12:56 am 00:56 Clear 63 17.2 55 12.8 75 75 Calm 29.98 1015 10 16 0.00 0.00
1:56 am 01:56 Clear 60 15.6 54 12.2 80 80 NW 7 11 29.97 1015 10 16 0.00 0.00
2:56 am 02:56 Clear 59 15 53 11.7 81 81 WNW 8 13 29.97 1015 10 16 0.00 0.00
3:56 am 03:56 Clear 60 15.6 53 11.7 78 78 WNW 8 13 29.97 1015 10 16 0.00 0.00
4:56 am 04:56 Clear 58 14.4 53 11.7 84 84 NW 9 15 29.99 1016 10 16 0.00 0.00
5:56 am 05:56 Clear 57 13.9 53 11.7 87 87 NNW 7 11 30.00 1016 10 16 0.00 0.00
6:56 am 06:56 Sunny 57 13.9 54 12.2 89 89 NW 6 9 30.02 1017 10 16 0.00 0.00
7:56 am 07:56 Sunny 62 16.7 57 13.9 84 84 NNW 8 13 30.05 1018 10 16 0.00 0.00
8:56 am 08:56 Partly Cloudy 65 18.3 59 15 81 81 N 14 22 30.08 1019 10 16 0.00 0.00
9:03 am 09:03 Mostly Cloudy 64 18 59 15 83 83 N 15 24 30.06 1018 10 16 0.00 0.00
9:29 am 09:29 Partly Cloudy 66 19 59 15 78 78 N 13 20 30.06 1018 10 16 0.00 0.00
9:56 am 09:56 Sunny 69 20.6 59 15 70 70 N 13 20 30.08 1019 10 16 0.00 0.00
10:20 am 10:20 Mostly Cloudy 70 21 59 15 69 69 N 13 20 30.05 1018 10 16 0.00 0.00
10:56 am 10:56 Cloudy 69 20.6 58 14.4 68 68 NNW 8 13 30.10 1019 10 16 0.00 0.00
11:56 am 11:56 Cloudy 71 21.7 58 14.4 63 63 NNW 13 20 30.10 1019 10 16 0.00 0.00
12:56 pm 12:56 Cloudy 73 22.8 58 14.4 59 59 N 15 24 30.09 1019 10 16 0.00 0.00
1:13 pm 13:13 Partly Cloudy 75 24 57 14 54 54 N 13 20 30.02 1017 10 16 0.00 0.00
1:56 pm 13:56 Sunny 76 24.4 57 13.9 52 52 NNE 17 28 30.07 1018 10 16 0.00 0.00
2:56 pm 14:56 Sunny 78 25.6 57 13.9 48 48 NNE 14 22 30.05 1018 10 16 0.00 0.00
3:56 pm 15:56 Sunny 80 26.7 57 13.9 45 45 NNE 10 17 30.04 1017 10 16 0.00 0.00
4:56 pm 16:56 Sunny 80 26.7 56 13.3 44 44 NNE 10 17 30.03 1017 10 16 0.00 0.00
5:56 pm 17:56 Sunny 80 26.7 56 13.3 44 44 NNE 7 11 30.03 1017 10 16 0.00 0.00
6:56 pm 18:56 Partly Cloudy 78 25.6 58 14.4 50 50 SE 7 11 30.04 1017 10 16 0.00 0.00
7:56 pm 19:56 Sunny 75 23.9 59 15 57 57 ESE 5 7 30.04 1017 10 16 0.00 0.00
8:56 pm 20:56 Clear 70 21.1 59 15 68 68 E 7 11 30.05 1018 10 16 0.00 0.00
9:56 pm 21:56 Clear 67 19.4 59 15 76 76 ESE 7 11 30.07 1018 10 16 0.00 0.00
10:56 pm 22:56 Clear 65 18.3 59 15 81 81 SSE 3 6 30.09 1019 10 16 0.00 0.00
11:56 pm 23:56 Clear 65 18.3 59 15 81 81 Calm 30.09 1019 10 16 0.00 0.00

Powered by AerisWeather